Location: Mount Cross
(36.6390°N, 79.4878°W)
Time: 16:24:45
(UTC+00:00)

Vanguard 3 - Visible Passes

Search period start: 31 March 2023 00:00
Search period end: 10 April 2023 00:00
Orbit: 508 x 3249 km, 33.4° (Epoch: 31 March)

Date Brightness Start Highest point End Pass type
(mag) Time Alt. Az. Time Alt. Az. Time Alt. Az.
31 Mar 10.6 05:28:28 34° ESE 05:28:28 34° ESE 05:38:55 10° E visible
31 Mar 9.7 07:32:49 65° SW 07:36:19 74° SSE 07:55:52 10° E visible
31 Mar 10.0 09:37:09 19° W 09:53:36 79° S 10:10:47 10° ESE visible
01 Apr 11.2 04:16:13 14° E 04:16:13 14° E 04:18:21 10° E visible
01 Apr 10.0 06:20:34 58° ESE 06:20:34 58° ESE 06:37:02 10° E visible
01 Apr 9.9 08:24:54 42° WSW 08:34:07 80° S 08:53:09 10° E visible
01 Apr 10.1 10:31:24 10° W 10:51:14 71° SSW 11:07:04 10° ESE visible
02 Apr 10.6 05:08:17 31° E 05:08:17 31° E 05:17:24 10° E visible
02 Apr 9.7 07:12:37 71° SSW 07:14:47 76° SSE 07:34:44 10° E visible
02 Apr 10.0 09:16:57 22° W 09:32:02 78° S 09:50:05 10° ESE visible
03 Apr 11.2 03:56:00 12° E 03:56:00 12° E 03:56:50 10° E visible
03 Apr 10.0 06:00:20 55° ESE 06:00:20 55° ESE 06:15:34 10° E visible
03 Apr 9.9 08:04:40 47° WSW 08:12:33 81° S 08:32:08 10° E visible
03 Apr 10.1 10:10:10 10° W 10:29:38 69° SSW 10:46:25 10° ESE visible
04 Apr 10.7 04:48:04 28° E 04:48:04 28° E 04:55:45 10° E visible
04 Apr 9.6 06:52:24 76° SSW 06:53:16 77° S 07:13:22 10° E visible
04 Apr 10.0 08:56:45 25° W 09:10:25 77° S 09:29:10 10° ESE visible
05 Apr 10.0 05:40:08 51° ESE 05:40:08 51° ESE 05:53:57 10° E visible
05 Apr 9.8 07:44:29 52° WSW 07:50:58 80° S 08:10:57 10° E visible
05 Apr 10.1 09:49:02 10° W 10:07:57 66° SSW 10:25:33 10° SE visible
06 Apr 10.7 04:27:54 24° E 04:27:54 24° E 04:33:59 10° E visible
06 Apr 9.6 06:32:14 77° SSE 06:32:14 77° SSE 06:51:51 10° E visible
06 Apr 9.9 08:36:35 28° W 08:48:44 76° SSW 09:08:03 10° ESE visible
07 Apr 10.1 05:20:02 45° E 05:20:02 45° E 05:32:10 10° E visible
07 Apr 9.7 07:24:23 58° WSW 07:29:23 80° S 07:49:33 10° E visible
07 Apr 10.1 09:28:44 12° W 09:46:11 64° SSW 10:04:26 10° SE visible
08 Apr 10.8 04:07:53 20° E 04:07:53 20° E 04:12:08 10° E visible
08 Apr 9.6 06:12:14 73° SE 06:12:14 73° SE 06:30:11 10° E visible
08 Apr 9.9 08:16:35 33° W 08:27:01 74° SSW 08:46:43 10° ESE visible
08 Apr 10.3 10:25:21 10° W 10:43:05 48° SSW 10:59:44 10° SE visible
09 Apr10.302:55:48ENE02:55:48ENE02:30:49SSWvisible
09 Apr 10.2 05:00:09 38° E 05:00:09 38° E 05:10:18 10° E visible
09 Apr 9.5 07:04:31 66° WSW 07:07:51 79° S 07:27:56 10° ESE visible
09 Apr 10.1 09:08:53 15° W 09:24:22 61° SSW 09:43:05 10° SE visible
